Location: Avully
(45.9633°N, 6.0228°E)
Time: 15:20:12
(UTC+00:00)

DELTA 2 R/B (1) - Pass Details

Date: 23 May 2024
Orbit: 788 x 801 km, 39.6° (Epoch: 18 June)

Event Time Altitude Azimuth Distance (km) Brightness Sun altitude
Exits shadow 00:26:21 36° 141° (SE) 1,230 4.2 -22.3°
Drops below altitude 10° 00:30:19 10° 103° (ESE) 2,351 6.0 -22.1°
Sets 00:32:54 0° 96° (E) 3,279 6.9 -22.0°
